星链-36347(STARLINK-36347)

导读

STARLINK-36347(NORAD编号68521)是SpaceX星链星座的一员,属于第二代星链卫星系统。星链星座旨在提供全球宽带互联网服务,该卫星运行在近地轨道,是SpaceX大规模星座部署中的一颗卫星。 2026年SpaceX计划将包括该卫星在内的约4400颗星链卫星轨道高度从550公里降至480公里,以降低碰撞风险,提升太空安全,故障卫星可更快再入大气层销毁,缓解近地轨道拥挤问题,应对凯斯勒现象担忧。截至2024年,星链已发射超7000颗卫星,该卫星是其全球组网的重要组成部分。

Basic Information
目录编号:
68521
目录名称:
STARLINK-36347
国际标识:
2026-068P
轨道中心:
EARTH
卫星名称:
星链-36347
卫星全名:
星链-36347(STARLINK-36347)
卫星状态:
在轨 (已飞行158 天)
发射日期:
2026-03-30 UTC
国别 :
美国 (US)
星等 :
--
Orbit Information
数据来源 国际轨道数据
星历时间: 2026-09-04T08:06:10+0800
10小时前
查看轨道信息
半长轴: 6840.871km
偏心率: 0.0001599
轨道倾角: 53.159°
近地点辐角 83.672°
升交点赤经 19.031°
平近点角 276.447°
近地点: 461.64km
远地点: 463.828km
周期: 93.848分钟
每日圈数: 15.343899
Detailed Information
固有亮度:
5
最大亮度:
2.5
卫星平台:
Starlink V1.0
覆盖范围:
全球
运营商:
太空探索技术公司
运营商所在国:
美国
制造商(研发单位):
太空探索技术公司
制造商所在国:
美国
使用方式:
暂无
Satellite Introduction
Starlink 计划是 SpaceX 推出的全球卫星互联网项目,通过发射低轨道卫星,为全球尤其是偏远地区提供高速、低延迟的互联网服务。自 2019 年起,Starlink 已部署数千颗卫星,旨在缩小全球数字鸿沟,推动互联网普及。该项目还为军事、航空等行业提供通信支持,带来广泛经济效益。
2D Orbit Map
3D Orbit Map
Orbit Altitude Analysis Chart
Orbit Inclination Analysis Chart
Orbit Comprehensive Analysis Chart
View Comprehensive Chart
Conjunction Data List
Event ID Objects TCA Miss Dist (km) Collision Risk Probability Collision Risk Index (CRI) Action
CDM_260905-021006-026506-852121
2026-09-05T
02:10:31+0000
0.396 km
远距离
2.288696E-4 高风险 0.82
CDM_260905-063506-036206-852121
2026-09-05T
06:35:09+0000
0.915 km
远距离
3.218433E-5 中风险 0.65
CDM_260905-013606-786206-852121
2026-09-05T
01:36:33+0000
1.009 km
极远距离
1.631334E-5 中风险 0.59
CDM_260905-131906-786206-852121
2026-09-05T
13:19:58+0000
1.237 km
极远距离
8.046444E-6 低风险 0.53
CDM_260905-000206-786206-852121
2026-09-05T
00:02:46+0000
1.505 km
极远距离
4.205236E-6 低风险 0.47
CDM_260905-003606-026506-852121
2026-09-05T
00:36:44+0000
1.770 km
极远距离
2.555151E-6 低风险 0.43
CDM_260905-114606-786206-852121
2026-09-05T
11:46:10+0000
1.782 km
极远距离
2.529428E-6 低风险 0.43
CDM_260905-050106-036206-852121
2026-09-05T
05:01:22+0000
2.080 km
极远距离
2.302765E-6 低风险 0.42
CDM_260905-015705-382606-852121
2026-09-05T
01:57:18+0000
2.507 km
极远距离
1.548576E-6 低风险 0.39
CDM_260903-081802-911006-852123
2026-09-03T
08:18:35+0000
2.878 km
极远距离
1.400177E-6 低风险 0.38